Weather History for Hat Yai, Thailand

Change the Weather History Date:

Wednesday, June 26, 2013

  Actual Average Record
Temperature  
Mean Temperature 82 °F -  
Max Temperature 91 °F 88 °F 102 °F (2002)
Min Temperature 74 °F 74 °F 71 °F (2014)
Cooling Degree Days 18    
Growing Degree Days 32 (Base 50)    
Moisture  
Dew Point 73 °F    
Average Humidity 76    
Maximum Humidity 94    
Minimum Humidity 40    
Precipitation  
Precipitation 0.00 in - - ()
Sea Level Pressure  
Sea Level Pressure 29.86 in    
Wind  
Wind Speed 2 mph ()    
Max Wind Speed 12 mph    
Max Gust Speed -    
Visibility 5.9 miles    
Events      
Averages and records for this station are not official NWS values.
T = Trace of Precipitation, MM = Missing Value Source: Averaged Metar Reports

Daily Weather History Graph

Daily Weather History Graph

Search for Another Location

Airport:

Trip Planner

Search our weather history database for the weather conditions in past years. The results will help you decide how hot, cold, wet, or windy it might be!

Date:

Astronomy

Jun. 26, 2013 Rise Set
Actual Time 6:05 AM ICT 6:37 PM ICT
Civil Twilight 5:42 AM ICT 6:59 PM ICT
Nautical Twilight 5:16 AM ICT 7:26 PM ICT
Astronomical Twilight 4:48 AM ICT 7:53 PM ICT
Moon 9:24 PM ICT (6/26) 8:43 AM ICT (6/26)
Length of Visible Light 13h 17m
Length of Day
12h 31m
Waning Gibbous, 89% of the Moon is Illuminated
Jun 26
Waning Gibbous
Jun 30
Last Quarter
Jul 8
New
Jul 16
First Quarter
Jul 23
Full

Hourly Weather History & Observations

Time (ICT) Temp. Heat Index Dew Point Humidity Pressure Visibility Wind Dir Wind Speed Gust Speed Precip Events Conditions
12:00 AM 77.0 °F - 75.2 °F 94% 29.89 in 6.2 mi SE 2.3 mph - N/A   Mostly Cloudy
12:30 AM 77.0 °F - 75.2 °F 94% 29.89 in 6.2 mi Calm Calm - N/A   Mostly Cloudy
1:00 AM 77 °F - 74 °F 87% 29.89 in 6 mi Calm Calm - -   Scattered Clouds
1:00 AM 77.0 °F - 73.4 °F 89% 29.89 in 6.2 mi Calm Calm - N/A   Mostly Cloudy
1:30 AM 77.0 °F - 73.4 °F 89% 29.86 in 5.0 mi Calm Calm - N/A   Mostly Cloudy
2:00 AM 77.0 °F - 73.4 °F 89% 29.86 in 5.0 mi Calm Calm - N/A   Mostly Cloudy
2:30 AM 75.2 °F - 73.4 °F 94% 29.83 in 5.0 mi Calm Calm - N/A   Mostly Cloudy
3:00 AM 75.2 °F - 73.4 °F 94% 29.83 in 5.0 mi Calm Calm - N/A   Mostly Cloudy
3:30 AM 75.2 °F - 73.4 °F 94% 29.83 in 5.0 mi Calm Calm - N/A   Mostly Cloudy
4:00 AM 75.2 °F - 73.4 °F 94% 29.83 in 5.0 mi Calm Calm - N/A   Mostly Cloudy
4:30 AM 75.2 °F - 73.4 °F 94% 29.83 in 5.0 mi Calm Calm - N/A   Mostly Cloudy
5:00 AM 75.2 °F - 73.4 °F 94% 29.83 in 5.0 mi Calm Calm - N/A   Mostly Cloudy
5:30 AM 75.2 °F - 73.4 °F 94% 29.86 in 4.3 mi Calm Calm - N/A   Mostly Cloudy
6:00 AM 75.2 °F - 71.6 °F 89% 29.86 in 4.3 mi WSW 2.3 mph - N/A   Mostly Cloudy
6:30 AM 75.2 °F - 71.6 °F 89% 29.86 in 5.0 mi SE 2.3 mph - N/A   Mostly Cloudy
7:00 AM 76 °F - 73 °F 87% 29.87 in 6 mi SW 2.3 mph - -   Scattered Clouds
7:00 AM 77.0 °F - 73.4 °F 89% 29.86 in 6.2 mi SW 2.3 mph - N/A   Mostly Cloudy
7:30 AM 78.8 °F - 73.4 °F 83% 29.86 in 6.2 mi Calm Calm - N/A   Mostly Cloudy
8:00 AM 78.8 °F - 73.4 °F 83% 29.89 in 6.2 mi West 3.5 mph - N/A   Mostly Cloudy
8:30 AM 82.4 °F 89.5 °F 75.2 °F 79% 29.89 in 6.2 mi East 3.5 mph - N/A   Mostly Cloudy
9:00 AM 84.2 °F 92.3 °F 75.2 °F 74% 29.89 in 6.2 mi ESE 2.3 mph - N/A   Mostly Cloudy
9:30 AM 86.0 °F 93.4 °F 73.4 °F 66% 29.89 in 6.2 mi SE 2.3 mph - N/A   Mostly Cloudy
10:00 AM 87.8 °F 93.8 °F 71.6 °F 58% 29.89 in 6.2 mi South 2.3 mph - N/A   Mostly Cloudy
10:30 AM 89.6 °F 94.7 °F 69.8 °F 52% 29.89 in 6.2 mi SSW 2.3 mph - N/A   Mostly Cloudy
11:00 AM 89.6 °F 96.2 °F 71.6 °F 55% 29.89 in 6.2 mi South 4.6 mph - N/A   Mostly Cloudy
11:30 AM 89.6 °F 96.2 °F 71.6 °F 55% 29.89 in 6.2 mi SSW 4.6 mph - N/A   Mostly Cloudy
12:00 PM 89.6 °F 96.2 °F 71.6 °F 55% 29.89 in 6.2 mi West 5.8 mph - N/A   Mostly Cloudy
12:30 PM 91.4 °F 100.1 °F 73.4 °F 55% 29.86 in 6.2 mi West 8.1 mph - N/A   Mostly Cloudy
1:00 PM 92 °F - 70 °F 40% 29.86 in 6 mi West 5.8 mph - -   Scattered Clouds
1:00 PM 91.4 °F 98.4 °F 71.6 °F 52% 29.86 in 6.2 mi West 5.8 mph - N/A   Mostly Cloudy
1:30 PM 91.4 °F 98.4 °F 71.6 °F 52% 29.83 in 6.2 mi WSW 8.1 mph - N/A   Mostly Cloudy
2:00 PM 91.4 °F 98.4 °F 71.6 °F 52% 29.83 in 6.2 mi SSW 4.6 mph - N/A   Mostly Cloudy
2:30 PM 91.4 °F 100.1 °F 73.4 °F 55% 29.83 in 6.2 mi SW 11.5 mph - N/A   Mostly Cloudy
3:00 PM 91.4 °F 100.1 °F 73.4 °F 55% 29.80 in 6.2 mi SW 8.1 mph - N/A   Mostly Cloudy
3:30 PM 91.4 °F 96.8 °F 69.8 °F 49% 29.80 in 6.2 mi WSW 11.5 mph - N/A   Mostly Cloudy
4:00 PM 86.0 °F 95.1 °F 75.2 °F 70% 29.80 in 6.2 mi South 9.2 mph - N/A   Mostly Cloudy
4:30 PM 84.2 °F 92.3 °F 75.2 °F 74% 29.80 in 6.2 mi South 8.1 mph - N/A   Mostly Cloudy
5:00 PM 84.2 °F 92.3 °F 75.2 °F 74% 29.80 in 6.2 mi South 8.1 mph - N/A   Mostly Cloudy
5:30 PM 84.2 °F 92.3 °F 75.2 °F 74% 29.80 in 6.2 mi SSW 4.6 mph - N/A   Mostly Cloudy
6:00 PM 84.2 °F 92.3 °F 75.2 °F 74% 29.80 in 6.2 mi South 4.6 mph - N/A   Mostly Cloudy
6:30 PM 82.4 °F 89.5 °F 75.2 °F 79% 29.83 in 6.2 mi South 4.6 mph - N/A   Mostly Cloudy
7:00 PM 82 °F - 75 °F 73% 29.82 in 6 mi SSW 4.6 mph - -   Scattered Clouds
7:00 PM 82.4 °F 89.5 °F 75.2 °F 79% 29.83 in 6.2 mi SSW 4.6 mph - N/A   Mostly Cloudy
7:30 PM 80.6 °F 86.2 °F 75.2 °F 84% 29.86 in 6.2 mi South 5.8 mph - N/A   Mostly Cloudy
8:00 PM 80.6 °F 86.2 °F 75.2 °F 84% 29.86 in 6.2 mi SSW 2.3 mph - N/A   Mostly Cloudy
8:30 PM 80.6 °F 85.4 °F 73.4 °F 79% 29.86 in 6.2 mi South 3.5 mph - N/A   Mostly Cloudy
9:00 PM 80.6 °F 85.4 °F 73.4 °F 79% 29.89 in 6.2 mi Calm Calm - N/A   Mostly Cloudy
9:30 PM 80.6 °F 85.4 °F 73.4 °F 79% 29.89 in 6.2 mi South 4.6 mph - N/A   Mostly Cloudy
10:00 PM 78.8 °F - 73.4 °F 83% 29.89 in 6.2 mi SSE 3.5 mph - N/A   Mostly Cloudy
10:30 PM 78.8 °F - 73.4 °F 83% 29.89 in 6.2 mi Calm Calm - N/A   Mostly Cloudy
11:00 PM 77.0 °F - 73.4 °F 89% 29.89 in 6.2 mi Calm Calm - N/A   Mostly Cloudy
11:30 PM 77.0 °F - 75.2 °F 94% 29.89 in 6.2 mi Calm Calm - N/A   Mostly Cloudy